This is the latest recevied weather packets stored in our database for station/object KM4KMS. If no packets are shown the sender has not sent any weather packets the latest 10 day(s).
| Time | Temp. | Humidity | Pressure | Rain* | Wind** | Luminosity | Snow |
|---|---|---|---|---|---|---|---|
| 1777995551 | 18.89° C | 73% | 1009.6 hPa | 0 mm | - | 139 W/m² | - |
| 1777995248 | 18.89° C | 72% | 1009.5 hPa | 0 mm | - | 157 W/m² | - |
| 1777994944 | 18.89° C | 73% | 1009.5 hPa | 0 mm | - | 192 W/m² | - |
| 1777994636 | 18.89° C | 74% | 1009.5 hPa | 0 mm | - | 252 W/m² | - |
| 1777994335 | 18.33° C | 72% | 1009.2 hPa | 0 mm | - | 256 W/m² | - |
| 1777994033 | 18.33° C | 74% | 1009.5 hPa | 0 mm | - | 207 W/m² | - |
| 1777993729 | 18.33° C | 74% | 1009.4 hPa | 0 mm | - | 184 W/m² | - |
| 1777993426 | 18.33° C | 73% | 1009.2 hPa | 0 mm | - | 209 W/m² | - |
| 1777993120 | 18.33° C | 74% | 1009.4 hPa | 0 mm | - | 228 W/m² | - |
| 1777992814 | 18.33° C | 74% | 1009.1 hPa | 0 mm | - | 232 W/m² | - |
| 1777992511 | 18.33° C | 73% | 1009.4 hPa | 0 mm | - | 235 W/m² | - |
| 1777992210 | 17.78° C | 73% | 1009.1 hPa | 0 mm | - | 235 W/m² | - |
| 1777991906 | 17.78° C | 74% | 1009.1 hPa | 0 mm | - | 240 W/m² | - |
| 1777991604 | 17.78° C | 74% | 1009.1 hPa | 0 mm | - | 230 W/m² | - |
| 1777991301 | 17.78° C | 74% | 1009.1 hPa | 0 mm | - | 225 W/m² | - |
| 1777990998 | 17.78° C | 75% | 1009.3 hPa | 0 mm | - | 219 W/m² | - |
| 1777990695 | 17.78° C | 74% | 1009.3 hPa | 0 mm | - | 217 W/m² | - |
| 1777990393 | 17.78° C | 74% | 1009.1 hPa | 0 mm | - | 212 W/m² | - |
| 1777989785 | 17.22° C | 77% | 1009 hPa | 0 mm | - | 227 W/m² | - |
| 1777989482 | 17.22° C | 77% | 1008.9 hPa | 0 mm | - | 216 W/m² | - |
| 1777989178 | 17.22° C | 78% | 1009.2 hPa | 0 mm | - | 221 W/m² | - |
| 1777988874 | 16.67° C | 81% | 1009 hPa | 0 mm | - | 211 W/m² | - |
| 1777988572 | 16.67° C | 81% | 1009.2 hPa | 0 mm | - | 198 W/m² | - |
| 1777988268 | 16.67° C | 81% | 1009.3 hPa | 0 mm | - | 187 W/m² | - |
| 1777987965 | 16.67° C | 83% | 1009.2 hPa | 0 mm | - | 176 W/m² | - |
* Rain latest hour (hover to see other rain measurements)
** Current wind speed in m/s (hover to see current wind gust speed)